Tapachula Airport, Mexico

6:47 PM CDT on July 22, 2017 (GMT -0500)
Tapachula International

Weather History for MMTP - October, 2013

Change the Weather History Date:

Friday, October 4, 2013

  Actual Average Record
Temperature  
Mean Temperature 81 °F -  
Max Temperature 89 °F 84 °F 91 °F (2014)
Min Temperature 73 °F 73 °F 73 °F (1999)
Cooling Degree Days 16    
Growing Degree Days 31 (Base 50)    
Moisture  
Dew Point 76 °F    
Average Humidity 87    
Maximum Humidity 100    
Minimum Humidity 62    
Precipitation  
Precipitation 0.00 in - - ()
Sea Level Pressure  
Sea Level Pressure 29.87 in    
Wind  
Wind Speed 1 mph ()    
Max Wind Speed 10 mph    
Max Gust Speed -    
Visibility 9.4 miles    
Events      
Averages and records for this station are not official NWS values.
T = Trace of Precipitation, MM = Missing Value Source: Averaged Metar Reports

Daily Weather History Graph

Daily Weather History Graph

Search for Another Location

Airport or City:

Trip Planner

Search our weather history database for the weather conditions in past years. The results will help you decide how hot, cold, wet, or windy it might be!

Date:

Astronomy

Oct. 04, 2013 Rise Set
Actual Time 6:59 AM CDT 6:56 PM CDT
Civil Twilight 6:37 AM CDT 7:17 PM CDT
Nautical Twilight 6:12 AM CDT 7:42 PM CDT
Astronomical Twilight 5:48 AM CDT 8:07 PM CDT
Moon 6:33 AM CDT (10/4) 6:44 PM CDT (10/4)
Length of Visible Light 12h 39m
Length of Day
11h 56m
Waning Crescent, 0% of the Moon is Illuminated
Oct 4
Waning Crescent
Oct 4
New
Oct 11
First Quarter
Oct 18
Full
Oct 26
Last Quarter

Hourly Weather History & Observations

Time (CDT) Temp. Heat Index Dew Point Humidity Pressure Visibility Wind Dir Wind Speed Gust Speed Precip Events Conditions
12:40 AM 77.0 °F - 75.2 °F 94% 29.88 in 10.0 mi Calm Calm - N/A   Mostly Cloudy
1:40 AM 77.0 °F - 75.2 °F 94% 29.88 in 10.0 mi Calm Calm - N/A   Mostly Cloudy
2:40 AM 75.2 °F - 75.2 °F 100% 29.87 in 10.0 mi Calm Calm - N/A   Mostly Cloudy
3:42 AM 75.2 °F - 75.2 °F 100% 29.84 in 10.0 mi Calm Calm - N/A   Mostly Cloudy
4:40 AM 75.2 °F - 75.2 °F 100% 29.87 in 10.0 mi Calm Calm - N/A   Mostly Cloudy
5:43 AM 75.2 °F - 73.4 °F 94% 29.87 in 10.0 mi Calm Calm - N/A   Mostly Cloudy
6:43 AM 73.4 °F - 73.4 °F 100% 29.85 in 10.0 mi Calm Calm - N/A   Scattered Clouds
7:40 AM 75.2 °F - 73.4 °F 94% 29.89 in 10.0 mi Calm Calm - N/A   Scattered Clouds
8:41 AM 77.0 °F - 73.4 °F 89% 29.92 in 10.0 mi Calm Calm - N/A   Scattered Clouds
9:45 AM 78.8 °F - 73.4 °F 83% 29.83 in 10.0 mi Calm Calm - N/A   Scattered Clouds
10:40 AM 84.2 °F 92.3 °F 75.2 °F 74% 29.93 in 10.0 mi Calm Calm - N/A   Scattered Clouds
11:52 AM 89.6 °F 99.8 °F 75.2 °F 62% 29.91 in 10.0 mi Calm Calm - N/A   Scattered Clouds
12:42 PM 87.8 °F 97.6 °F 75.2 °F 66% 29.81 in 10.0 mi Calm Calm - N/A   Scattered Clouds
1:45 PM 86.0 °F 96.9 °F 77.0 °F 74% 29.88 in 10.0 mi Calm Calm - N/A   Scattered Clouds
2:57 PM 86.0 °F 96.9 °F 77.0 °F 74% 29.84 in 10.0 mi Calm Calm - N/A   Scattered Clouds
3:42 PM 86.0 °F 99.3 °F 78.8 °F 79% 29.86 in 10.0 mi Calm Calm - N/A   Scattered Clouds
4:56 PM 84.2 °F 96.1 °F 78.8 °F 84% 29.83 in 10.0 mi West 10.4 mph - N/A   Scattered Clouds
5:41 PM 84.2 °F 96.1 °F 78.8 °F 84% 29.83 in 10.0 mi WSW 8.1 mph - N/A   Scattered Clouds
6:44 PM 82.4 °F 92.4 °F 78.8 °F 89% 29.81 in 10.0 mi West 6.9 mph - N/A   Mostly Cloudy
7:44 PM 82.4 °F 90.9 °F 77.0 °F 84% 29.87 in 7.0 mi Calm Calm - N/A   Mostly Cloudy
8:41 PM 78.8 °F - 77.0 °F 94% 29.87 in 7.0 mi NE 6.9 mph - N/A   Mostly Cloudy
9:40 PM 78.8 °F - 75.2 °F 89% 29.81 in 8.0 mi Calm Calm - N/A   Mostly Cloudy
10:41 PM 77.0 °F - 73.4 °F 89% 29.97 in 6.0 mi Calm Calm - N/A   Mostly Cloudy
11:41 PM 75.2 °F - 73.4 °F 94% 29.96 in 8.0 mi Calm Calm - N/A   Mostly Cloudy